• In Hungary
  • List of Countries
  • For 7 days
  • Water Temperature
  • Satellite Maps
  • Weather Map
  • News
  • Weather Widgets
  • user-avatar
    Login

    Hourly Weather Horodysche

    Today, 23 October, Monday

    Time Temperature Precipitation Wind Pressure Humidity
    00:00 +3°C° 0 mm 3 mps 743 mmHg 75%
    01:00 +3°C° 0 mm 3 mps 743 mmHg 74%
    02:00 +3°C° 0 mm 4 mps 743 mmHg 74%
    03:00 +3°C° 0 mm 4 mps 742 mmHg 75%
    04:00 +1°C° 0 mm 4 mps 742 mmHg 76%
    05:00 +1°C° 0 mm 4 mps 742 mmHg 77%
    06:00 +1°C° 0 mm 4 mps 741 mmHg 76%
    07:00 +2°C° 0 mm 5 mps 741 mmHg 75%
    08:00 +2°C° 0 mm 6 mps 741 mmHg 74%
    09:00 +3°C° 0 mm 6 mps 741 mmHg 71%
    10:00 +4°C° 0 mm 6 mps 741 mmHg 68%
    11:00 +7°C° 0 mm 6 mps 740 mmHg 64%
    12:00 +7°C° 0 mm 6 mps 740 mmHg 63%
    13:00 +8°C° 0 mm 6 mps 740 mmHg 61%
    14:00 +8°C° 0 mm 6 mps 740 mmHg 60%
    15:00 +8°C° 0 mm 5 mps 739 mmHg 63%
    16:00 +8°C° 0 mm 5 mps 739 mmHg 66%
    17:00 +7°C° 0 mm 5 mps 739 mmHg 69%
    18:00 +7°C° 0.2 mm 5 mps 739 mmHg 71%
    19:00 +7°C° 0.2 mm 5 mps 739 mmHg 73%
    20:00 +7°C° 0.2 mm 6 mps 739 mmHg 75%
    21:00 +5°C° 0.4 mm 6 mps 739 mmHg 76%
    22:00 +5°C° 0.4 mm 6 mps 739 mmHg 76%
    23:00 +5°C° 0.4 mm 6 mps 740 mmHg 77%

    Tomorrow, 24 October, Tuesday

    Time Temperature Precipitation Wind Pressure Humidity
    00:00 +5°C° 0.9 mm 6 mps 740 mmHg 78%
    01:00 +5°C° 0.9 mm 6 mps 740 mmHg 79%
    02:00 +4°C° 0.9 mm 6 mps 740 mmHg 80%
    03:00 +4°C° 0.8 mm 6 mps 740 mmHg 79%
    04:00 +4°C° 0.8 mm 6 mps 740 mmHg 78%
    05:00 +4°C° 0.8 mm 6 mps 741 mmHg 77%
    06:00 +4°C° 0.7 mm 6 mps 741 mmHg 76%
    07:00 +3°C° 0.7 mm 6 mps 742 mmHg 75%
    08:00 +3°C° 0.7 mm 6 mps 742 mmHg 74%
    09:00 +4°C° 0.4 mm 6 mps 743 mmHg 73%
    10:00 +4°C° 0.4 mm 6 mps 743 mmHg 72%
    11:00 +4°C° 0.4 mm 6 mps 744 mmHg 71%
    12:00 +4°C° 0.2 mm 6 mps 744 mmHg 70%
    13:00 +5°C° 0.2 mm 6 mps 744 mmHg 68%
    14:00 +5°C° 0.2 mm 6 mps 745 mmHg 67%
    15:00 +5°C° 0 mm 6 mps 745 mmHg 67%
    16:00 +5°C° 0 mm 6 mps 745 mmHg 67%
    17:00 +5°C° 0 mm 5 mps 745 mmHg 67%
    18:00 +5°C° 0 mm 5 mps 746 mmHg 67%
    19:00 +5°C° 0 mm 5 mps 746 mmHg 68%
    20:00 +3°C° 0 mm 5 mps 747 mmHg 68%
    21:00 +3°C° 0 mm 5 mps 747 mmHg 69%
    22:00 +3°C° 0 mm 5 mps 747 mmHg 69%
    23:00 +3°C° 0 mm 5 mps 748 mmHg 70%

    Day after tomorrow, 25 October, Wednesday

    Time Temperature Precipitation Wind Pressure Humidity
    00:00 +3°C° 0 mm 5 mps 748 mmHg 72%
    01:00 +3°C° 0 mm 4 mps 748 mmHg 74%
    02:00 +3°C° 0 mm 4 mps 748 mmHg 76%
    03:00 +3°C° 0 mm 4 mps 748 mmHg 76%
    04:00 +1°C° 0 mm 4 mps 748 mmHg 77%
    05:00 +1°C° 0 mm 4 mps 749 mmHg 77%
    06:00 +1°C° 0 mm 5 mps 749 mmHg 75%
    07:00 +1°C° 0 mm 5 mps 749 mmHg 73%
    08:00 +1°C° 0 mm 5 mps 750 mmHg 71%
    09:00 +2°C° 0 mm 5 mps 750 mmHg 66%
    10:00 +3°C° 0 mm 5 mps 750 mmHg 60%
    11:00 +5°C° 0 mm 5 mps 750 mmHg 55%
    12:00 +6°C° 0 mm 4 mps 750 mmHg 53%
    13:00 +7°C° 0 mm 4 mps 750 mmHg 50%
    14:00 +7°C° 0 mm 4 mps 750 mmHg 47%
    15:00 +7°C° 0 mm 4 mps 750 mmHg 50%
    16:00 +7°C° 0 mm 3 mps 750 mmHg 53%
    17:00 +5°C° 0 mm 3 mps 750 mmHg 55%
    18:00 +4°C° 0 mm 3 mps 750 mmHg 57%
    19:00 +5°C° 0 mm 2 mps 750 mmHg 59%
    20:00 +4°C° 0 mm 2 mps 751 mmHg 62%
    21:00 +4°C° 0 mm 2 mps 750 mmHg 63%
    22:00 +3°C° 0 mm 2 mps 750 mmHg 63%
    23:00 +4°C° 0 mm 1 mps 750 mmHg 64%

    26 October, Thursday

    Time Temperature Precipitation Wind Pressure Humidity
    00:00 +4°C° 0 mm 1 mps 750 mmHg 65%
    01:00 +4°C° 0 mm 1 mps 750 mmHg 65%
    02:00 +3°C° 0 mm 1 mps 750 mmHg 66%
    03:00 +3°C° 0 mm 1 mps 750 mmHg 66%
    04:00 +3°C° 0 mm 1 mps 750 mmHg 67%
    05:00 +3°C° 0 mm 1 mps 749 mmHg 67%
    06:00 +3°C° 0 mm 2 mps 749 mmHg 66%
    07:00 +3°C° 0 mm 2 mps 749 mmHg 65%
    08:00 +3°C° 0 mm 3 mps 749 mmHg 64%
    09:00 +4°C° 0 mm 3 mps 749 mmHg 62%
    10:00 +4°C° 0 mm 4 mps 749 mmHg 60%
    11:00 +5°C° 0 mm 4 mps 748 mmHg 58%
    12:00 +6°C° 0 mm 4 mps 748 mmHg 57%
    13:00 +7°C° 0 mm 5 mps 747 mmHg 56%
    14:00 +8°C° 0 mm 5 mps 747 mmHg 56%
    15:00 +8°C° 0 mm 4 mps 746 mmHg 59%
    16:00 +8°C° 0 mm 4 mps 746 mmHg 62%
    17:00 +9°C° 0 mm 3 mps 745 mmHg 66%
    18:00 +9°C° 0 mm 3 mps 745 mmHg 67%
    19:00 +9°C° 0 mm 3 mps 745 mmHg 69%
    20:00 +9°C° 0 mm 3 mps 745 mmHg 71%
    21:00 +9°C° 0.2 mm 3 mps 744 mmHg 71%
    22:00 +9°C° 0.2 mm 3 mps 744 mmHg 72%
    23:00 +10°C° 0.2 mm 3 mps 743 mmHg 72%

    27 October, Friday

    Time Temperature Precipitation Wind Pressure Humidity
    00:00 +9°C° 0.1 mm 3 mps 743 mmHg 75%
    01:00 +9°C° 0.1 mm 3 mps 743 mmHg 77%
    02:00 +9°C° 0.1 mm 3 mps 742 mmHg 79%
    03:00 +9°C° 0 mm 3 mps 742 mmHg 82%
    04:00 +9°C° 0 mm 3 mps 741 mmHg 84%
    05:00 +9°C° 0 mm 3 mps 741 mmHg 87%
    06:00 +9°C° 0.2 mm 3 mps 741 mmHg 88%
    07:00 +9°C° 0.2 mm 3 mps 740 mmHg 89%
    08:00 +9°C° 0.2 mm 3 mps 740 mmHg 90%
    09:00 +10°C° 0.1 mm 3 mps 739 mmHg 86%
    10:00 +11°C° 0.1 mm 4 mps 739 mmHg 81%
    11:00 +12°C° 0.1 mm 4 mps 739 mmHg 77%
    12:00 +12°C° 0.2 mm 4 mps 738 mmHg 77%
    13:00 +12°C° 0.2 mm 4 mps 737 mmHg 76%
    14:00 +12°C° 0.2 mm 4 mps 736 mmHg 75%
    15:00 +12°C° 0.1 mm 3 mps 735 mmHg 74%
    16:00 +12°C° 0.1 mm 3 mps 735 mmHg 74%
    17:00 +13°C° 0.1 mm 2 mps 734 mmHg 74%
    18:00 +13°C° 0.2 mm 2 mps 734 mmHg 75%
    19:00 +12°C° 0.2 mm 2 mps 733 mmHg 77%
    20:00 +12°C° 0.2 mm 2 mps 733 mmHg 78%
    21:00 +11°C° 0.1 mm 3 mps 733 mmHg 80%
    22:00 +10°C° 0.1 mm 3 mps 732 mmHg 82%
    23:00 +10°C° 0.1 mm 3 mps 732 mmHg 83%

    28 October, Saturday

    Time Temperature Precipitation Wind Pressure Humidity
    00:00 +10°C° 0.4 mm 4 mps 732 mmHg 85%
    01:00 +8°C° 0.4 mm 4 mps 732 mmHg 86%
    02:00 +8°C° 0.4 mm 4 mps 732 mmHg 87%
    03:00 +7°C° 0.5 mm 4 mps 732 mmHg 87%
    04:00 +7°C° 0.5 mm 4 mps 732 mmHg 87%
    05:00 +7°C° 0.5 mm 4 mps 732 mmHg 86%
    06:00 +7°C° 0 mm 5 mps 732 mmHg 86%
    07:00 +7°C° 0 mm 5 mps 733 mmHg 86%
    08:00 +7°C° 0 mm 5 mps 733 mmHg 85%
    09:00 +8°C° 0 mm 5 mps 733 mmHg 79%
    10:00 +9°C° 0 mm 5 mps 733 mmHg 73%
    11:00 +10°C° 0 mm 5 mps 733 mmHg 67%
    12:00 +10°C° 0 mm 5 mps 733 mmHg 66%
    13:00 +10°C° 0 mm 5 mps 733 mmHg 66%
    14:00 +10°C° 0 mm 5 mps 733 mmHg 65%
    15:00 +11°C° 0 mm 4 mps 733 mmHg 67%
    16:00 +10°C° 0 mm 3 mps 733 mmHg 69%
    17:00 +9°C° 0 mm 2 mps 733 mmHg 71%
    18:00 +9°C° 0 mm 2 mps 734 mmHg 72%
    19:00 +8°C° 0 mm 2 mps 734 mmHg 73%
    20:00 +8°C° 0 mm 2 mps 734 mmHg 74%
    21:00 +9°C° 0 mm 1 mps 734 mmHg 75%
    22:00 +9°C° 0 mm 1 mps 734 mmHg 75%
    23:00 +8°C° 0 mm 1 mps 735 mmHg 75%

    29 October, Sunday

    Time Temperature Precipitation Wind Pressure Humidity
    00:00 +8°C° 0.1 mm 1 mps 735 mmHg 76%
    01:00 +8°C° 0.1 mm 1 mps 735 mmHg 77%
    02:00 +8°C° 0.1 mm 1 mps 735 mmHg 78%
    03:00 +8°C° 0 mm 1 mps 735 mmHg 79%
    04:00 +8°C° 0 mm 1 mps 735 mmHg 81%
    05:00 +8°C° 0 mm 1 mps 735 mmHg 82%
    06:00 +8°C° 0 mm 1 mps 735 mmHg 81%
    07:00 +8°C° 0 mm 1 mps 735 mmHg 81%
    08:00 +8°C° 0 mm 1 mps 736 mmHg 80%
    09:00 +9°C° 0 mm 1 mps 736 mmHg 74%
    10:00 +11°C° 0 mm 1 mps 736 mmHg 68%
    11:00 +12°C° 0 mm 1 mps 736 mmHg 62%
    12:00 +12°C° 0 mm 2 mps 736 mmHg 60%
    13:00 +13°C° 0 mm 2 mps 736 mmHg 57%
    14:00 +13°C° 0 mm 2 mps 736 mmHg 54%
    15:00 +12°C° 0 mm 2 mps 736 mmHg 58%
    16:00 +10°C° 0 mm 2 mps 736 mmHg 62%
    17:00 +10°C° 0 mm 2 mps 735 mmHg 66%
    18:00 +9°C° 0 mm 2 mps 736 mmHg 70%
    19:00 +8°C° 0 mm 2 mps 736 mmHg 74%
    20:00 +8°C° 0 mm 3 mps 736 mmHg 77%
    21:00 +7°C° 0 mm 3 mps 736 mmHg 80%
    22:00 +5°C° 0 mm 3 mps 736 mmHg 83%
    23:00 +6°C° 0 mm 2 mps 736 mmHg 86%
    Show more